| time (UTC) | temp F | wind direction | speed MPH | gust MPH | rain 1hr in | rain 24hr in | rain mn in | humidity % | barometer mb |
| 20260508014040 | 63 | 0 | 0.0 | 0.0 | 0.00 | 0.00 | 0.00 | 81 | 1016.5 |
| 20260508013540 | 63 | 0 | 0.0 | 0.0 | 0.00 | 0.00 | 0.00 | 81 | 1016.5 |
| 20260508013053 | 64 | 0 | 0.0 | 0.0 | 0.00 | 0.00 | 0.00 | 81 | 1016.4 |
| 20260508012539 | 64 | 0 | 0.0 | 0.0 | 0.00 | 0.00 | 0.00 | 81 | 1016.5 |
| 20260508012039 | 64 | 0 | 0.0 | 0.0 | 0.00 | 0.00 | 0.00 | 81 | 1016.3 |
| 20260508011554 | 64 | 0 | 0.0 | 0.0 | 0.00 | 0.00 | 0.00 | 80 | 1016.3 |
| 20260508011041 | 64 | 0 | 0.0 | 0.0 | 0.00 | 0.00 | 0.00 | 79 | 1016.4 |
| 20260508010539 | 65 | 0 | 0.0 | 0.0 | 0.00 | 0.00 | 0.00 | 79 | 1016.5 |
| 20260508010054 | 65 | 0 | 0.0 | 0.0 | 0.00 | 0.00 | 0.00 | 78 | 1016.5 |
| 20260508005538 | 65 | 0 | 0.0 | 0.0 | 0.00 | 0.05 | 0.00 | 78 | 1016.4 |
| 20260508005039 | 65 | 0 | 0.0 | 0.0 | 0.00 | 0.05 | 0.00 | 78 | 1016.3 |
| 20260508004555 | 65 | 0 | 0.0 | 0.0 | 0.00 | 0.05 | 0.00 | 77 | 1016.3 |
| 20260508004040 | 66 | 0 | 0.0 | 0.0 | 0.00 | 0.05 | 0.00 | 77 | 1016.5 |
| 20260508003538 | 66 | 0 | 0.0 | 0.0 | 0.00 | 0.05 | 0.00 | 77 | 1016.3 |
| 20260508003055 | 66 | 0 | 0.0 | 0.0 | 0.00 | 0.05 | 0.00 | 75 | 1016.1 |
| 20260508002539 | 66 | 0 | 0.0 | 0.0 | 0.00 | 0.05 | 0.00 | 75 | 1016.3 |
| 20260508002039 | 66 | 0 | 0.0 | 0.0 | 0.00 | 0.05 | 0.00 | 75 | 1016.5 |
| 20260508001552 | 66 | 0 | 0.0 | 0.0 | 0.00 | 0.05 | 0.00 | 74 | 1016.7 |
| 20260508001039 | 66 | 0 | 0.0 | 0.0 | 0.00 | 0.05 | 0.00 | 74 | 1016.9 |
| 20260508000541 | 67 | 0 | 0.0 | 0.0 | 0.00 | 0.05 | 0.00 | 74 | 1016.9 |
| 20260508000053 | 67 | 0 | 0.0 | 0.0 | 0.00 | 0.05 | 0.00 | 73 | 1016.8 |
| 20260507235539 | 67 | 0 | 0.0 | 0.0 | 0.00 | 0.05 | 0.00 | 73 | 1016.7 |
| 20260507235039 | 67 | 0 | 0.0 | 0.0 | 0.00 | 0.05 | 0.00 | 73 | 1016.7 |
| 20260507234555 | 68 | 0 | 0.0 | 0.0 | 0.00 | 0.05 | 0.00 | 72 | 1016.6 |
| 20260507234039 | 68 | 0 | 0.0 | 0.0 | 0.00 | 0.05 | 0.00 | 70 | 1016.4 |
| 20260507233539 | 68 | 0 | 0.0 | 0.0 | 0.00 | 0.05 | 0.00 | 69 | 1016.6 |
| 20260507233048 | 68 | 0 | 0.0 | 0.0 | 0.00 | 0.05 | 0.00 | 69 | 1016.7 |
| 20260507232542 | 68 | 0 | 0.0 | 0.0 | 0.00 | 0.05 | 0.00 | 68 | 1016.7 |
| 20260507232038 | 68 | 0 | 0.0 | 0.0 | 0.00 | 0.05 | 0.00 | 69 | 1016.6 |
| 20260507231554 | 68 | 0 | 0.0 | 0.0 | 0.00 | 0.05 | 0.00 | 69 | 1016.8 |
| 20260507231038 | 68 | 0 | 0.0 | 0.0 | 0.00 | 0.05 | 0.00 | 69 | 1017.0 |
| 20260507230542 | 68 | 0 | 0.0 | 0.0 | 0.00 | 0.05 | 0.00 | 67 | 1016.8 |
| 20260507230100 | 68 | 0 | 0.0 | 1.0 | 0.00 | 0.05 | 0.00 | 66 | 1016.8 |
| 20260507225539 | 68 | 0 | 0.0 | 1.0 | 0.00 | 0.05 | 0.00 | 65 | 1016.8 |
| 20260507225039 | 69 | 0 | 0.0 | 0.0 | 0.00 | 0.05 | 0.00 | 66 | 1016.9 |
| 20260507224547 | 69 | 0 | 0.0 | 0.0 | 0.00 | 0.05 | 0.00 | 66 | 1017.1 |
| 20260507224039 | 69 | 0 | 0.0 | 0.0 | 0.00 | 0.05 | 0.00 | 68 | 1017.0 |
| 20260507223543 | 69 | 0 | 0.0 | 1.0 | 0.00 | 0.05 | 0.00 | 66 | 1017.1 |
| 20260507223053 | 69 | 0 | 0.0 | 1.0 | 0.00 | 0.05 | 0.00 | 64 | 1017.3 |
| 20260507222541 | 69 | 0 | 0.0 | 1.0 | 0.00 | 0.05 | 0.00 | 65 | 1017.2 |
| 20260507222040 | 69 | 0 | 0.0 | 1.0 | 0.00 | 0.05 | 0.00 | 65 | 1017.2 |
| 20260507221550 | 69 | 0 | 0.0 | 0.0 | 0.00 | 0.05 | 0.00 | 64 | 1017.2 |
| 20260507221041 | 69 | 0 | 0.0 | 1.0 | 0.00 | 0.05 | 0.00 | 66 | 1017.1 |
| 20260507220539 | 69 | 0 | 0.0 | 2.0 | 0.00 | 0.05 | 0.00 | 64 | 1017.1 |
| 20260507220048 | 69 | 0 | 0.0 | 2.0 | 0.00 | 0.05 | 0.00 | 63 | 1016.9 |
| 20260507215540 | 69 | 69 | 0.0 | 2.0 | 0.00 | 0.05 | 0.00 | 62 | 1017.0 |
| 20260507215040 | 69 | 0 | 0.0 | 1.0 | 0.00 | 0.05 | 0.00 | 64 | 1017.3 |
| 20260507214545 | 69 | 0 | 0.0 | 1.0 | 0.00 | 0.05 | 0.00 | 64 | 1017.4 |
| 20260507214039 | 69 | 0 | 0.0 | 1.0 | 0.00 | 0.05 | 0.00 | 64 | 1017.2 |
| 20260507213541 | 69 | 0 | 0.0 | 0.0 | 0.00 | 0.05 | 0.00 | 62 | 1017.5 |
| 20260507213100 | 69 | 0 | 0.0 | 0.0 | 0.00 | 0.05 | 0.00 | 65 | 1017.5 |
| 20260507212539 | 69 | 0 | 0.0 | 0.0 | 0.00 | 0.05 | 0.00 | 62 | 1017.7 |
| 20260507212039 | 69 | 0 | 0.0 | 0.0 | 0.00 | 0.05 | 0.00 | 61 | 1017.7 |
| 20260507211559 | 69 | 0 | 0.0 | 1.0 | 0.00 | 0.05 | 0.00 | 61 | 1017.8 |
| 20260507211039 | 69 | 0 | 0.0 | 1.0 | 0.00 | 0.05 | 0.00 | 61 | 1018.0 |
| 20260507210539 | 69 | 0 | 0.0 | 1.0 | 0.00 | 0.05 | 0.00 | 61 | 1018.0 |
| 20260507210053 | 69 | 0 | 0.0 | 2.0 | 0.00 | 0.05 | 0.00 | 62 | 1018.1 |
| 20260507205539 | 69 | 0 | 0.0 | 2.0 | 0.00 | 0.06 | 0.00 | 62 | 1017.9 |
| 20260507205042 | 69 | 0 | 0.0 | 3.0 | 0.00 | 0.06 | 0.00 | 63 | 1017.9 |
| 20260507204556 | 69 | 117 | 0.0 | 4.0 | 0.00 | 0.06 | 0.00 | 61 | 1017.9 |
| 20260507204037 | 69 | 73 | 1.0 | 5.0 | 0.00 | 0.06 | 0.00 | 59 | 1017.8 |
| 20260507203539 | 69 | 94 | 2.0 | 5.0 | 0.00 | 0.06 | 0.00 | 60 | 1017.7 |
| 20260507203047 | 69 | 53 | 1.0 | 5.0 | 0.00 | 0.06 | 0.00 | 60 | 1017.7 |
| 20260507202539 | 69 | 89 | 0.0 | 5.0 | 0.00 | 0.06 | 0.00 | 58 | 1017.7 |
| 20260507202038 | 69 | 0 | 2.0 | 5.0 | 0.00 | 0.06 | 0.00 | 57 | 1017.7 |
| 20260507201603 | 69 | 0 | 1.0 | 3.0 | 0.00 | 0.06 | 0.00 | 58 | 1017.8 |
| 20260507201039 | 69 | 77 | 1.0 | 3.0 | 0.00 | 0.06 | 0.00 | 59 | 1017.9 |
| 20260507200542 | 69 | 99 | 0.0 | 5.0 | 0.00 | 0.06 | 0.00 | 60 | 1017.9 |
| 20260507200057 | 69 | 59 | 2.0 | 5.0 | 0.00 | 0.06 | 0.00 | 57 | 1018.0 |
| 20260507195536 | 69 | 73 | 0.0 | 4.0 | 0.00 | 0.07 | 0.00 | 58 | 1018.1 |
| 20260507195041 | 69 | 113 | 2.0 | 4.0 | 0.00 | 0.07 | 0.00 | 58 | 1018.2 |
| 20260507194558 | 69 | 0 | 0.0 | 4.0 | 0.00 | 0.07 | 0.00 | 60 | 1018.2 |
| 20260507194042 | 69 | 82 | 1.0 | 4.0 | 0.00 | 0.07 | 0.00 | 60 | 1018.3 |
| 20260507193539 | 69 | 80 | 1.0 | 3.0 | 0.00 | 0.07 | 0.00 | 58 | 1018.3 |
| 20260507193052 | 69 | 60 | 1.0 | 3.0 | 0.00 | 0.07 | 0.00 | 59 | 1018.5 |
| 20260507192538 | 69 | 84 | 0.0 | 4.0 | 0.00 | 0.07 | 0.00 | 61 | 1018.7 |
| 20260507192039 | 69 | 69 | 2.0 | 4.0 | 0.00 | 0.07 | 0.00 | 59 | 1018.8 |
| 20260507191610 | 69 | 67 | 0.0 | 2.0 | 0.00 | 0.07 | 0.00 | 60 | 1018.9 |
| 20260507191039 | 69 | 0 | 0.0 | 2.0 | 0.00 | 0.07 | 0.00 | 61 | 1019.0 |
| 20260507190539 | 69 | 0 | 0.0 | 4.0 | 0.00 | 0.07 | 0.00 | 58 | 1019.1 |
| 20260507190052 | 69 | 46 | 1.0 | 4.0 | 0.00 | 0.07 | 0.00 | 57 | 1019.0 |
| 20260507185538 | 69 | 109 | 1.0 | 4.0 | 0.00 | 0.07 | 0.00 | 58 | 1018.9 |
| 20260507185038 | 69 | 86 | 1.0 | 4.0 | 0.00 | 0.07 | 0.00 | 58 | 1019.0 |
| 20260507184602 | 69 | 96 | 1.0 | 4.0 | 0.00 | 0.07 | 0.00 | 58 | 1019.0 |
| 20260507184038 | 69 | 0 | 0.0 | 5.0 | 0.00 | 0.07 | 0.00 | 60 | 1019.0 |
| 20260507183538 | 68 | 11 | 1.0 | 5.0 | 0.00 | 0.07 | 0.00 | 59 | 1018.9 |
| 20260507183053 | 68 | 0 | 2.0 | 5.0 | 0.00 | 0.07 | 0.00 | 59 | 1018.7 |
| 20260507182538 | 69 | 89 | 2.0 | 7.0 | 0.00 | 0.07 | 0.00 | 59 | 1018.8 |
| 20260507182039 | 69 | 283 | 1.0 | 7.0 | 0.00 | 0.07 | 0.00 | 59 | 1018.9 |
| 20260507181552 | 69 | 80 | 2.0 | 5.0 | 0.00 | 0.07 | 0.00 | 58 | 1019.0 |
| 20260507181039 | 69 | 60 | 0.0 | 5.0 | 0.00 | 0.07 | 0.00 | 59 | 1018.9 |
| 20260507180539 | 69 | 70 | 2.0 | 5.0 | 0.00 | 0.07 | 0.00 | 58 | 1019.0 |
| 20260507180054 | 69 | 288 | 1.0 | 5.0 | 0.00 | 0.07 | 0.00 | 59 | 1019.1 |
| 20260507175543 | 69 | 65 | 1.0 | 5.0 | 0.00 | 0.07 | 0.00 | 60 | 1019.2 |
| 20260507175039 | 69 | 75 | 1.0 | 6.0 | 0.00 | 0.07 | 0.00 | 60 | 1019.2 |
| 20260507174549 | 70 | 0 | 2.0 | 6.0 | 0.00 | 0.07 | 0.00 | 59 | 1019.2 |
| 20260507174039 | 70 | 312 | 0.0 | 5.0 | 0.00 | 0.07 | 0.00 | 60 | 1019.4 |
| 20260507173538 | 70 | 0 | 0.0 | 7.0 | 0.00 | 0.07 | 0.00 | 60 | 1019.4 |
| 20260507173050 | 69 | 322 | 1.0 | 7.0 | 0.00 | 0.07 | 0.00 | 60 | 1019.5 |
| 20260507172539 | 69 | 316 | 1.0 | 5.0 | 0.00 | 0.07 | 0.00 | 60 | 1019.5 |
| 20260507172038 | 69 | 63 | 1.0 | 6.0 | 0.00 | 0.07 | 0.00 | 60 | 1019.5 |
| 20260507171551 | 68 | 0 | 2.0 | 7.0 | 0.00 | 0.07 | 0.00 | 62 | 1019.5 |
| 20260507171038 | 68 | 297 | 1.0 | 7.0 | 0.00 | 0.07 | 0.00 | 61 | 1019.6 |
| 20260507170538 | 68 | 79 | 3.0 | 7.0 | 0.00 | 0.07 | 0.00 | 61 | 1019.8 |
| 20260507170056 | 68 | 84 | 2.0 | 5.0 | 0.00 | 0.07 | 0.00 | 61 | 1020.0 |
| 20260507165538 | 68 | 330 | 1.0 | 4.0 | 0.00 | 0.07 | 0.00 | 63 | 1020.3 |
| 20260507165039 | 68 | 86 | 0.0 | 4.0 | 0.00 | 0.07 | 0.00 | 62 | 1020.4 |
| 20260507164617 | 68 | 52 | 0.0 | 5.0 | 0.00 | 0.07 | 0.00 | 65 | 1020.6 |
| 20260507164039 | 68 | 316 | 1.0 | 5.0 | 0.00 | 0.07 | 0.00 | 63 | 1020.6 |
| 20260507163539 | 68 | 301 | 0.0 | 5.0 | 0.00 | 0.07 | 0.00 | 64 | 1020.6 |
| 20260507163050 | 68 | 66 | 1.0 | 5.0 | 0.00 | 0.07 | 0.00 | 64 | 1020.8 |
| 20260507162539 | 67 | 302 | 1.0 | 4.0 | 0.00 | 0.07 | 0.00 | 65 | 1020.8 |
| 20260507162039 | 67 | 91 | 1.0 | 3.0 | 0.00 | 0.07 | 0.00 | 65 | 1020.7 |
| 20260507161555 | 67 | 49 | 0.0 | 3.0 | 0.00 | 0.07 | 0.00 | 67 | 1020.7 |
| 20260507161038 | 66 | 0 | 0.0 | 5.0 | 0.00 | 0.07 | 0.00 | 68 | 1020.9 |
| 20260507160539 | 66 | 302 | 2.0 | 5.0 | 0.00 | 0.07 | 0.00 | 69 | 1020.8 |
| 20260507160048 | 65 | 0 | 0.0 | 3.0 | 0.00 | 0.07 | 0.00 | 71 | 1020.7 |
| 20260507155543 | 64 | 300 | 0.0 | 4.0 | 0.00 | 0.08 | 0.00 | 71 | 1020.7 |
| 20260507155038 | 64 | 309 | 0.0 | 4.0 | 0.00 | 0.08 | 0.00 | 72 | 1020.6 |
| 20260507154548 | 64 | 58 | 1.0 | 5.0 | 0.00 | 0.08 | 0.00 | 71 | 1020.7 |
| 20260507154039 | 63 | 71 | 1.0 | 5.0 | 0.00 | 0.08 | 0.00 | 72 | 1020.8 |
| 20260507153538 | 63 | 40 | 3.0 | 5.0 | 0.00 | 0.08 | 0.00 | 71 | 1020.9 |
| 20260507153049 | 63 | 319 | 0.0 | 4.0 | 0.00 | 0.08 | 0.00 | 72 | 1020.9 |
| 20260507152536 | 63 | 322 | 1.0 | 4.0 | 0.00 | 0.08 | 0.00 | 73 | 1021.0 |
| 20260507152041 | 62 | 34 | 2.0 | 4.0 | 0.00 | 0.08 | 0.00 | 74 | 1021.2 |
| 20260507151552 | 62 | 24 | 0.0 | 4.0 | 0.00 | 0.08 | 0.00 | 74 | 1021.2 |
| 20260507151039 | 62 | 326 | 0.0 | 4.0 | 0.00 | 0.08 | 0.00 | 73 | 1021.3 |
| 20260507150539 | 62 | 30 | 0.0 | 5.0 | 0.00 | 0.08 | 0.00 | 74 | 1021.2 |
| 20260507150051 | 62 | 0 | 1.0 | 5.0 | 0.00 | 0.08 | 0.00 | 74 | 1021.4 |
| 20260507145538 | 62 | 61 | 1.0 | 4.0 | 0.00 | 0.08 | 0.00 | 73 | 1021.4 |
| 20260507145041 | 61 | 0 | 1.0 | 4.0 | 0.00 | 0.08 | 0.00 | 76 | 1021.3 |
| 20260507144549 | 61 | 0 | 0.0 | 4.0 | 0.00 | 0.08 | 0.00 | 76 | 1021.3 |
| 20260507144039 | 61 | 0 | 0.0 | 4.0 | 0.00 | 0.08 | 0.00 | 78 | 1021.4 |
| 20260507143538 | 61 | 39 | 1.0 | 5.0 | 0.00 | 0.08 | 0.00 | 77 | 1021.3 |
| 20260507143104 | 61 | 81 | 2.0 | 5.0 | 0.00 | 0.08 | 0.00 | 76 | 1021.4 |
| 20260507142539 | 61 | 63 | 1.0 | 3.0 | 0.00 | 0.08 | 0.00 | 77 | 1021.3 |
| 20260507142038 | 60 | 65 | 1.0 | 5.0 | 0.00 | 0.08 | 0.00 | 78 | 1021.3 |
| 20260507141604 | 60 | 0 | 1.0 | 5.0 | 0.00 | 0.08 | 0.00 | 79 | 1021.2 |
| 20260507141036 | 60 | 60 | 0.0 | 4.0 | 0.00 | 0.08 | 0.00 | 80 | 1021.3 |
| 20260507140539 | 59 | 0 | 0.0 | 4.0 | 0.00 | 0.08 | 0.00 | 80 | 1021.3 |
| 20260507140055 | 59 | 91 | 1.0 | 4.0 | 0.00 | 0.08 | 0.00 | 80 | 1021.4 |
| 20260507135537 | 58 | 41 | 0.0 | 3.0 | 0.00 | 0.08 | 0.00 | 81 | 1021.3 |
| 20260507135036 | 58 | 63 | 0.0 | 4.0 | 0.00 | 0.08 | 0.00 | 81 | 1021.4 |
| 20260507134555 | 58 | 0 | 1.0 | 4.0 | 0.00 | 0.08 | 0.00 | 81 | 1021.6 |
| 20260507134039 | 58 | 0 | 0.0 | 0.0 | 0.00 | 0.08 | 0.00 | 83 | 1021.6 |
| 20260507133539 | 58 | 0 | 0.0 | 0.0 | 0.00 | 0.08 | 0.00 | 84 | 1021.9 |
| 20260507133051 | 58 | 0 | 0.0 | 0.0 | 0.00 | 0.08 | 0.00 | 85 | 1021.9 |
| 20260507132540 | 58 | 0 | 0.0 | 0.0 | 0.00 | 0.08 | 0.00 | 86 | 1021.8 |
| 20260507132040 | 57 | 0 | 0.0 | 0.0 | 0.00 | 0.08 | 0.00 | 88 | 1021.8 |
| 20260507131600 | 57 | 0 | 0.0 | 0.0 | 0.00 | 0.08 | 0.00 | 89 | 1021.9 |
| 20260507131041 | 56 | 0 | 0.0 | 0.0 | 0.00 | 0.08 | 0.00 | 90 | 1021.9 |
| 20260507130537 | 56 | 0 | 0.0 | 0.0 | 0.00 | 0.08 | 0.00 | 91 | 1021.9 |
| 20260507130050 | 55 | 0 | 0.0 | 0.0 | 0.00 | 0.08 | 0.00 | 91 | 1021.8 |
| 20260507125539 | 55 | 0 | 0.0 | 0.0 | 0.00 | 0.08 | 0.00 | 92 | 1021.6 |
| 20260507125040 | 54 | 0 | 0.0 | 0.0 | 0.00 | 0.08 | 0.00 | 92 | 1021.5 |
| 20260507124549 | 53 | 0 | 0.0 | 0.0 | 0.00 | 0.08 | 0.00 | 92 | 1021.6 |
| 20260507124038 | 53 | 0 | 0.0 | 0.0 | 0.00 | 0.08 | 0.00 | 92 | 1021.7 |
| 20260507123539 | 53 | 0 | 0.0 | 0.0 | 0.00 | 0.08 | 0.00 | 92 | 1021.6 |
| 20260507123104 | 53 | 0 | 0.0 | 0.0 | 0.00 | 0.08 | 0.00 | 92 | 1021.4 |
| 20260507122539 | 53 | 0 | 0.0 | 0.0 | 0.00 | 0.08 | 0.00 | 92 | 1021.3 |
| 20260507122040 | 53 | 0 | 0.0 | 0.0 | 0.00 | 0.08 | 0.00 | 92 | 1021.4 |
| 20260507121550 | 52 | 0 | 0.0 | 0.0 | 0.00 | 0.08 | 0.00 | 92 | 1021.3 |
| 20260507121037 | 52 | 0 | 0.0 | 0.0 | 0.00 | 0.08 | 0.00 | 92 | 1021.7 |
| 20260507120537 | 52 | 0 | 0.0 | 0.0 | 0.00 | 0.08 | 0.00 | 92 | 1021.7 |
| 20260507120051 | 52 | 0 | 0.0 | 0.0 | 0.00 | 0.08 | 0.00 | 92 | 1021.7 |
| 20260507115539 | 52 | 0 | 0.0 | 0.0 | 0.00 | 0.08 | 0.00 | 92 | 1021.6 |
| 20260507115041 | 52 | 0 | 0.0 | 0.0 | 0.00 | 0.08 | 0.00 | 92 | 1021.4 |
| 20260507114552 | 52 | 0 | 0.0 | 0.0 | 0.00 | 0.08 | 0.00 | 92 | 1021.2 |
| 20260507114040 | 52 | 0 | 0.0 | 0.0 | 0.00 | 0.08 | 0.00 | 92 | 1021.1 |
| 20260507113538 | 52 | 0 | 0.0 | 0.0 | 0.00 | 0.08 | 0.00 | 92 | 1021.0 |
| 20260507113050 | 52 | 0 | 0.0 | 0.0 | 0.00 | 0.08 | 0.00 | 92 | 1020.9 |
| 20260507112540 | 52 | 0 | 0.0 | 0.0 | 0.00 | 0.08 | 0.00 | 92 | 1020.7 |
| 20260507112040 | 52 | 0 | 0.0 | 0.0 | 0.00 | 0.08 | 0.00 | 92 | 1020.7 |
| 20260507111547 | 52 | 0 | 0.0 | 0.0 | 0.00 | 0.08 | 0.00 | 92 | 1020.7 |
| 20260507111042 | 52 | 0 | 0.0 | 0.0 | 0.00 | 0.08 | 0.00 | 92 | 1020.6 |
| 20260507110539 | 52 | 0 | 0.0 | 0.0 | 0.00 | 0.08 | 0.00 | 91 | 1020.5 |
| 20260507110052 | 52 | 0 | 0.0 | 0.0 | 0.00 | 0.08 | 0.00 | 91 | 1020.6 |
| 20260507105541 | 52 | 0 | 0.0 | 0.0 | 0.00 | 0.08 | 0.00 | 91 | 1020.5 |
| 20260507105040 | 52 | 0 | 0.0 | 0.0 | 0.00 | 0.08 | 0.00 | 91 | 1020.3 |
| 20260507104559 | 52 | 0 | 0.0 | 0.0 | 0.00 | 0.08 | 0.00 | 91 | 1020.1 |
| 20260507104040 | 53 | 0 | 0.0 | 0.0 | 0.00 | 0.08 | 0.00 | 91 | 1019.9 |
| 20260507103540 | 53 | 0 | 0.0 | 0.0 | 0.00 | 0.08 | 0.00 | 91 | 1019.9 |
| 20260507103049 | 53 | 0 | 0.0 | 0.0 | 0.00 | 0.08 | 0.00 | 91 | 1019.6 |
| 20260507102541 | 53 | 0 | 0.0 | 0.0 | 0.00 | 0.08 | 0.00 | 91 | 1019.6 |
| 20260507102040 | 53 | 0 | 0.0 | 0.0 | 0.00 | 0.08 | 0.00 | 91 | 1019.6 |
| 20260507101553 | 53 | 0 | 0.0 | 0.0 | 0.00 | 0.08 | 0.00 | 91 | 1019.4 |
| 20260507101040 | 53 | 0 | 0.0 | 0.0 | 0.00 | 0.08 | 0.00 | 91 | 1019.2 |
| 20260507100540 | 53 | 0 | 0.0 | 0.0 | 0.00 | 0.08 | 0.00 | 91 | 1019.1 |
| 20260507100056 | 53 | 0 | 0.0 | 0.0 | 0.00 | 0.08 | 0.00 | 91 | 1019.0 |
| 20260507095541 | 53 | 0 | 0.0 | 0.0 | 0.00 | 0.08 | 0.00 | 90 | 1018.9 |
| 20260507095041 | 53 | 0 | 0.0 | 0.0 | 0.00 | 0.08 | 0.00 | 90 | 1018.9 |
| 20260507094553 | 53 | 0 | 0.0 | 0.0 | 0.00 | 0.08 | 0.00 | 90 | 1018.9 |
| 20260507094037 | 53 | 0 | 0.0 | 1.0 | 0.00 | 0.08 | 0.00 | 90 | 1018.9 |
| 20260507093540 | 53 | 0 | 0.0 | 1.0 | 0.00 | 0.08 | 0.00 | 90 | 1018.9 |
| 20260507093054 | 54 | 0 | 0.0 | 1.0 | 0.00 | 0.08 | 0.00 | 90 | 1018.7 |
| 20260507092540 | 54 | 0 | 0.0 | 1.0 | 0.00 | 0.08 | 0.00 | 90 | 1018.9 |
| 20260507092039 | 54 | 0 | 0.0 | 1.0 | 0.00 | 0.08 | 0.00 | 90 | 1018.9 |
| 20260507091553 | 54 | 77 | 0.0 | 1.0 | 0.00 | 0.08 | 0.00 | 90 | 1018.9 |
| 20260507091037 | 54 | 0 | 0.0 | 1.0 | 0.00 | 0.08 | 0.00 | 90 | 1019.2 |
| 20260507090537 | 54 | 0 | 0.0 | 1.0 | 0.00 | 0.08 | 0.00 | 90 | 1019.1 |
| 20260507090058 | 54 | 0 | 0.0 | 2.0 | 0.00 | 0.08 | 0.00 | 90 | 1018.8 |
| 20260507085541 | 54 | 0 | 0.0 | 2.0 | 0.00 | 0.08 | 0.00 | 90 | 1018.9 |
| 20260507085040 | 54 | 51 | 0.0 | 2.0 | 0.00 | 0.08 | 0.00 | 90 | 1018.7 |
| 20260507084553 | 54 | 0 | 0.0 | 2.0 | 0.00 | 0.08 | 0.00 | 90 | 1018.5 |
| 20260507084040 | 54 | 76 | 0.0 | 2.0 | 0.00 | 0.08 | 0.00 | 90 | 1018.6 |
| 20260507083541 | 55 | 0 | 0.0 | 1.0 | 0.00 | 0.08 | 0.00 | 90 | 1018.7 |
| 20260507083048 | 55 | 0 | 0.0 | 2.0 | 0.00 | 0.08 | 0.00 | 90 | 1018.8 |
| 20260507082540 | 55 | 0 | 0.0 | 2.0 | 0.00 | 0.08 | 0.00 | 90 | 1018.7 |
| 20260507082039 | 55 | 0 | 0.0 | 2.0 | 0.00 | 0.08 | 0.00 | 89 | 1018.7 |
| 20260507081554 | 55 | 0 | 0.0 | 2.0 | 0.00 | 0.08 | 0.00 | 89 | 1018.9 |
| 20260507081039 | 55 | 0 | 0.0 | 2.0 | 0.00 | 0.08 | 0.00 | 89 | 1018.8 |
| 20260507080541 | 55 | 75 | 0.0 | 3.0 | 0.00 | 0.08 | 0.00 | 89 | 1018.7 |
| 20260507075539 | 55 | 0 | 0.0 | 3.0 | 0.00 | 0.08 | 0.00 | 89 | 1018.4 |
| 20260507075040 | 56 | 0 | 1.0 | 3.0 | 0.00 | 0.08 | 0.00 | 89 | 1018.4 |
| 20260507074556 | 56 | 0 | 1.0 | 6.0 | 0.00 | 0.08 | 0.00 | 89 | 1018.3 |
| 20260507074039 | 56 | 66 | 2.0 | 6.0 | 0.00 | 0.08 | 0.00 | 89 | 1018.3 |
| 20260507073539 | 56 | 85 | 0.0 | 7.0 | 0.00 | 0.08 | 0.00 | 89 | 1018.2 |
| 20260507073049 | 55 | 92 | 2.0 | 8.0 | 0.00 | 0.08 | 0.00 | 89 | 1018.2 |
| 20260507072540 | 55 | 80 | 1.0 | 8.0 | 0.00 | 0.08 | 0.00 | 89 | 1018.1 |
| 20260507072038 | 56 | 66 | 2.0 | 8.0 | 0.00 | 0.08 | 0.00 | 89 | 1018.0 |
| 20260507071551 | 56 | 79 | 1.0 | 5.0 | 0.00 | 0.08 | 0.00 | 88 | 1017.9 |
| 20260507071043 | 56 | 65 | 1.0 | 4.0 | 0.00 | 0.08 | 0.00 | 88 | 1017.9 |
| 20260507070540 | 56 | 94 | 2.0 | 4.0 | 0.00 | 0.08 | 0.00 | 88 | 1018.0 |
| 20260507065542 | 56 | 0 | 1.0 | 4.0 | 0.00 | 0.08 | 0.00 | 87 | 1018.0 |
| 20260507065039 | 56 | 46 | 1.0 | 4.0 | 0.00 | 0.08 | 0.00 | 87 | 1018.2 |
| 20260507064626 | 56 | 54 | 0.0 | 4.0 | 0.00 | 0.08 | 0.00 | 86 | 1018.2 |
| 20260507064040 | 56 | 34 | 0.0 | 4.0 | 0.00 | 0.08 | 0.00 | 86 | 1018.2 |
| 20260507063540 | 56 | 91 | 1.0 | 3.0 | 0.00 | 0.08 | 0.00 | 86 | 1018.4 |
| 20260507063052 | 56 | 86 | 1.0 | 3.0 | 0.00 | 0.08 | 0.00 | 85 | 1018.3 |
| 20260507062540 | 56 | 81 | 0.0 | 3.0 | 0.00 | 0.08 | 0.00 | 84 | 1018.3 |
| 20260507062042 | 57 | 89 | 0.0 | 4.0 | 0.00 | 0.08 | 0.00 | 84 | 1018.3 |
| 20260507061552 | 57 | 0 | 1.0 | 7.0 | 0.00 | 0.08 | 0.00 | 84 | 1018.3 |
| 20260507061040 | 57 | 63 | 2.0 | 7.0 | 0.00 | 0.08 | 0.00 | 83 | 1018.3 |
| 20260507060540 | 57 | 37 | 2.0 | 7.0 | 0.00 | 0.08 | 0.00 | 83 | 1018.2 |
| 20260507060109 | 57 | 69 | 2.0 | 7.0 | 0.00 | 0.08 | 0.00 | 82 | 1018.3 |
| 20260507055540 | 57 | 39 | 3.0 | 7.0 | 0.00 | 0.08 | 0.00 | 82 | 1018.3 |
| 20260507055038 | 57 | 65 | 1.0 | 7.0 | 0.00 | 0.08 | 0.00 | 82 | 1018.3 |
| 20260507054557 | 58 | 65 | 3.0 | 7.0 | 0.00 | 0.08 | 0.00 | 81 | 1018.2 |
| 20260507054040 | 58 | 89 | 2.0 | 7.0 | 0.00 | 0.08 | 0.00 | 81 | 1018.2 |
| 20260507053540 | 58 | 99 | 2.0 | 7.0 | 0.00 | 0.08 | 0.00 | 81 | 1018.4 |
| 20260507053103 | 58 | 70 | 2.0 | 7.0 | 0.00 | 0.08 | 0.00 | 81 | 1018.4 |
| 20260507052540 | 58 | 56 | 2.0 | 6.0 | 0.00 | 0.08 | 0.00 | 81 | 1018.3 |
| 20260507052040 | 58 | 85 | 3.0 | 6.0 | 0.00 | 0.08 | 0.00 | 81 | 1018.3 |
| 20260507051604 | 58 | 70 | 2.0 | 7.0 | 0.00 | 0.08 | 0.00 | 81 | 1018.3 |
| 20260507051039 | 58 | 36 | 3.0 | 7.0 | 0.00 | 0.08 | 0.00 | 81 | 1018.3 |
| 20260507050539 | 58 | 57 | 3.0 | 7.0 | 0.00 | 0.08 | 0.00 | 81 | 1018.2 |
| 20260507050050 | 58 | 77 | 2.0 | 7.0 | 0.00 | 0.08 | 0.00 | 81 | 1018.3 |
| 20260507045540 | 58 | 59 | 2.0 | 7.0 | 0.00 | 0.08 | 0.08 | 81 | 1018.4 |
| 20260507045041 | 58 | 46 | 3.0 | 6.0 | 0.00 | 0.08 | 0.08 | 81 | 1018.4 |
| 20260507044557 | 59 | 62 | 1.0 | 5.0 | 0.00 | 0.08 | 0.08 | 81 | 1018.5 |
| 20260507044041 | 59 | 122 | 1.0 | 5.0 | 0.00 | 0.08 | 0.08 | 82 | 1018.6 |
| 20260507043540 | 59 | 68 | 1.0 | 8.0 | 0.00 | 0.08 | 0.08 | 81 | 1018.5 |
| 20260507043056 | 59 | 49 | 1.0 | 8.0 | 0.00 | 0.08 | 0.08 | 81 | 1018.5 |
| 20260507042538 | 59 | 39 | 2.0 | 7.0 | 0.00 | 0.08 | 0.08 | 81 | 1018.5 |
| 20260507042037 | 59 | 73 | 3.0 | 7.0 | 0.00 | 0.08 | 0.08 | 81 | 1018.6 |
| 20260507041551 | 59 | 80 | 1.0 | 7.0 | 0.00 | 0.08 | 0.08 | 81 | 1018.6 |
| 20260507041038 | 59 | 117 | 2.0 | 8.0 | 0.00 | 0.08 | 0.08 | 81 | 1018.6 |
| 20260507040538 | 59 | 65 | 3.0 | 8.0 | 0.00 | 0.08 | 0.08 | 81 | 1018.6 |
| 20260507040052 | 59 | 72 | 2.0 | 8.0 | 0.00 | 0.08 | 0.08 | 82 | 1018.6 |
| 20260507035537 | 59 | 84 | 3.0 | 8.0 | 0.00 | 0.08 | 0.08 | 82 | 1018.7 |
| 20260507035036 | 59 | 63 | 2.0 | 5.0 | 0.00 | 0.08 | 0.08 | 82 | 1018.8 |
| 20260507034551 | 59 | 59 | 1.0 | 4.0 | 0.00 | 0.08 | 0.08 | 83 | 1018.8 |
| 20260507034036 | 59 | 36 | 1.0 | 4.0 | 0.00 | 0.08 | 0.08 | 84 | 1018.8 |
| 20260507033537 | 59 | 56 | 1.0 | 4.0 | 0.00 | 0.08 | 0.08 | 84 | 1018.6 |
| 20260507033053 | 59 | 0 | 1.0 | 6.0 | 0.00 | 0.08 | 0.08 | 84 | 1018.5 |
| 20260507032536 | 59 | 54 | 1.0 | 6.0 | 0.00 | 0.08 | 0.08 | 84 | 1018.5 |
| 20260507032041 | 59 | 131 | 0.0 | 5.0 | 0.00 | 0.08 | 0.08 | 84 | 1018.5 |
| 20260507031552 | 58 | 81 | 1.0 | 6.0 | 0.00 | 0.08 | 0.08 | 84 | 1018.4 |
| 20260507031038 | 59 | 343 | 1.0 | 6.0 | 0.00 | 0.08 | 0.08 | 85 | 1018.3 |
| 20260507030538 | 58 | 28 | 0.0 | 7.0 | 0.00 | 0.08 | 0.08 | 85 | 1018.2 |
| 20260507030049 | 58 | 12 | 2.0 | 7.0 | 0.00 | 0.08 | 0.08 | 86 | 1018.0 |
| 20260507025537 | 58 | 44 | 1.0 | 6.0 | 0.00 | 0.08 | 0.08 | 86 | 1017.9 |
| 20260507025039 | 58 | 57 | 2.0 | 6.0 | 0.00 | 0.08 | 0.08 | 87 | 1017.8 |
| 20260507024548 | 58 | 87 | 1.0 | 5.0 | 0.00 | 0.08 | 0.08 | 87 | 1017.8 |
| 20260507024038 | 58 | 108 | 0.0 | 4.0 | 0.00 | 0.08 | 0.08 | 87 | 1017.8 |
| 20260507023537 | 58 | 60 | 0.0 | 3.0 | 0.00 | 0.08 | 0.08 | 87 | 1017.6 |
| 20260507023051 | 58 | 67 | 0.0 | 4.0 | 0.00 | 0.08 | 0.08 | 87 | 1017.6 |
| 20260507022536 | 58 | 60 | 1.0 | 4.0 | 0.00 | 0.08 | 0.08 | 87 | 1017.4 |
| 20260507022037 | 58 | 0 | 1.0 | 3.0 | 0.00 | 0.08 | 0.08 | 88 | 1017.4 |
| 20260507021550 | 58 | 124 | 0.0 | 4.0 | 0.00 | 0.08 | 0.08 | 88 | 1017.4 |
| 20260507021036 | 58 | 0 | 1.0 | 4.0 | 0.00 | 0.08 | 0.08 | 87 | 1017.3 |
| 20260507020538 | 58 | 6 | 1.0 | 3.0 | 0.00 | 0.08 | 0.08 | 87 | 1017.1 |
| 20260507015540 | 58 | 63 | 1.0 | 5.0 | 0.00 | 0.08 | 0.08 | 87 | 1017.0 |
| 20260507015037 | 58 | 43 | 1.0 | 5.0 | 0.00 | 0.08 | 0.08 | 88 | 1016.8 |
| 20260507014556 | 58 | 0 | 1.0 | 5.0 | 0.00 | 0.08 | 0.08 | 88 | 1016.7 |